Weather History for KW99 - January, 2013

Change the Weather History Date:

Friday, January 11, 2013

  Actual Average (KEKN) Record (KEKN)
Temperature  
Mean Temperature 44 °F 29 °F  
Max Temperature 55 °F 39 °F 65 °F (1913)
Min Temperature 32 °F 19 °F -15 °F (1970)
Degree Days  
Heating Degree Days 22 36  
Month to date heating degree days 396  
Since 1 July heating degree days 2687  
Cooling Degree Days 0 0  
Month to date cooling degree days 0  
Year to date cooling degree days 0  
Moisture  
Dew Point 38 °F    
Average Humidity 85    
Maximum Humidity 92    
Minimum Humidity 67    
Precipitation  
Precipitation 0.01 in 0.10 in 1.45 in (1916)
Month to date precipitation 1.12  
Year to date precipitation 1.12  
Snow  
Snow 0.00 in - - ()
Month to date snowfall  
Since 1 September snowfall  
Snow Depth -    
Sea Level Pressure  
Sea Level Pressure 30.22 in    
Wind  
Wind Speed 1 mph (SSE)    
Max Wind Speed 14 mph    
Max Gust Speed 18 mph    
Visibility 8 miles    
Events Rain    
T = Trace of Precipitation, MM = Missing Value Source: NWS Daily Summary

Daily Weather History Graph

Daily Weather History Graph

Search for Another Location

Airport or City:

Trip Planner

Search our weather history database for the weather conditions in past years. The results will help you decide how hot, cold, wet, or windy it might be!

Date:

Astronomy

Jan. 11, 2013 Rise Set
Actual Time 7:35 AM EST 5:14 PM EST
Civil Twilight 7:05 AM EST 5:44 PM EST
Nautical Twilight 6:32 AM EST 6:17 PM EST
Astronomical Twilight 6:00 AM EST 6:49 PM EST
Moon 7:06 AM EST (1/11) 5:29 PM EST (1/11)
Length of Visible Light 10h 38m
Length of Day
9h 39m
Waning Crescent, 0% of the Moon is Illuminated
Jan 11
Waning Crescent
Jan 11
New
Jan 18
First Quarter
Jan 26
Full
Feb 3
Last Quarter

Hourly Weather History & Observations

Time (EST) Temp. Windchill Dew Point Humidity Pressure Visibility Wind Dir Wind Speed Gust Speed Precip Events Conditions
12:15 AM 38.7 °F - 34.5 °F 85% 30.43 in 10.0 mi Calm Calm - N/A   Clear
12:35 AM 39.4 °F - 34.7 °F 83% 30.43 in 10.0 mi Calm Calm - N/A   Scattered Clouds
12:55 AM 39.4 °F - 35.1 °F 84% 30.42 in 10.0 mi Calm Calm - N/A   Mostly Cloudy
1:15 AM 39.2 °F - 35.1 °F 85% 30.41 in 10.0 mi Calm Calm - N/A   Mostly Cloudy
1:35 AM 38.5 °F - 34.7 °F 86% 30.41 in 10.0 mi Calm Calm - N/A   Scattered Clouds
1:55 AM 38.7 °F - 34.7 °F 86% 30.41 in 10.0 mi Calm Calm - N/A   Scattered Clouds
2:15 AM 38.3 °F - 34.7 °F 87% 30.41 in 10.0 mi Calm Calm - N/A   Clear
2:35 AM 36.5 °F - 33.1 °F 87% 30.41 in 10.0 mi Calm Calm - N/A   Scattered Clouds
2:55 AM 36.1 °F - 32.7 °F 87% 30.39 in 10.0 mi Calm Calm - N/A   Scattered Clouds
3:15 AM 34.5 °F - 31.6 °F 89% 30.39 in 10.0 mi Calm Calm - N/A   Scattered Clouds
3:35 AM 34.3 °F - 31.8 °F 90% 30.39 in 7.0 mi Calm Calm - N/A   Clear
3:55 AM 32.9 °F - 30.6 °F 91% 30.38 in 10.0 mi Calm Calm - N/A   Clear
4:15 AM 33.8 °F - 31.3 °F 90% 30.37 in 10.0 mi Calm Calm - N/A   Clear
4:35 AM 32.9 °F - 30.7 °F 92% 30.36 in 7.0 mi Calm Calm - N/A   Clear
4:55 AM 33.1 °F - 31.1 °F 92% 30.35 in 7.0 mi Calm Calm - N/A   Scattered Clouds
5:15 AM 34.7 °F - 32.4 °F 91% 30.34 in 7.0 mi Calm Calm - N/A   Mostly Cloudy
5:35 AM 34.9 °F - 32.4 °F 91% 30.34 in 7.0 mi Calm Calm - N/A   Scattered Clouds
5:55 AM 35.1 °F - 32.5 °F 91% 30.33 in 7.0 mi Calm Calm - N/A   Scattered Clouds
6:15 AM 34.5 °F - 32.0 °F 90% 30.33 in 7.0 mi Calm Calm - N/A   Scattered Clouds
6:35 AM 34.5 °F - 32.2 °F 91% 30.32 in 10.0 mi Calm Calm - N/A   Clear
6:55 AM 34.9 °F 30.8 °F 32.4 °F 91% 30.32 in 7.0 mi West 4.6 mph - N/A   Scattered Clouds
7:15 AM 35.8 °F - 33.3 °F 91% 30.32 in 7.0 mi Calm Calm - N/A   Scattered Clouds
7:35 AM 36.3 °F - 33.6 °F 90% 30.32 in 10.0 mi Calm Calm - N/A   Scattered Clouds
7:55 AM 36.5 °F - 33.8 °F 90% 30.32 in 10.0 mi Calm Calm - N/A   Scattered Clouds
8:15 AM 37.4 °F - 34.3 °F 89% 30.32 in 7.0 mi Calm Calm - N/A   Mostly Cloudy
8:35 AM 37.8 °F - 34.5 °F 88% 30.31 in 10.0 mi Calm Calm - N/A   Overcast
8:55 AM 38.7 °F - 34.9 °F 86% 30.30 in 7.0 mi Calm Calm - N/A   Overcast
9:15 AM 39.2 °F - 33.8 °F 81% 30.29 in 10.0 mi Calm Calm - N/A   Overcast
9:35 AM 40.3 °F - 34.0 °F 78% 30.28 in 10.0 mi Calm Calm - N/A   Overcast
9:55 AM 40.8 °F - 33.1 °F 74% 30.27 in 7.0 mi Calm Calm - N/A   Overcast
10:15 AM 41.2 °F - 34.2 °F 76% 30.26 in 7.0 mi Calm Calm - N/A Rain Light Rain
10:35 AM 41.4 °F - 34.7 °F 77% 30.24 in 4.0 mi Calm Calm - N/A Rain Rain
10:55 AM 41.9 °F - 35.6 °F 78% 30.23 in 7.0 mi Calm Calm - N/A Rain Light Rain
11:15 AM 45.0 °F - 39.2 °F 80% 30.21 in 10.0 mi Calm Calm - N/A   Overcast
11:35 AM 48.4 °F - 42.3 °F 79% 30.18 in 10.0 mi Calm Calm - N/A   Overcast
11:55 AM 50.2 °F - 42.6 °F 75% 30.17 in 10.0 mi SSE 8.1 mph - N/A   Overcast
12:15 PM 54.0 °F - 43.7 °F 68% 30.15 in 10.0 mi South 6.9 mph - N/A   Overcast
12:35 PM 54.5 °F - 43.7 °F 67% 30.14 in 10.0 mi SSE 12.7 mph 17.3 mph N/A   Overcast
12:55 PM 54.9 °F - 44.8 °F 69% 30.13 in 10.0 mi South 12.7 mph 17.3 mph N/A   Overcast
1:15 PM 55.9 °F - 45.5 °F 68% 30.11 in 10.0 mi South 9.2 mph - N/A   Overcast
1:35 PM 54.7 °F - 44.4 °F 68% 30.11 in 10.0 mi SE 4.6 mph - N/A Rain Rain
1:55 PM 53.1 °F - 46.8 °F 79% 30.11 in 7.0 mi South 13.8 mph 18.4 mph 0.01 in Rain Light Rain
2:15 PM 53.1 °F - 47.3 °F 81% 30.10 in 10.0 mi SSE 10.4 mph - N/A   Overcast
2:55 PM 52.2 °F - 47.5 °F 84% 30.09 in 10.0 mi SE 6.9 mph - N/A   Mostly Cloudy
3:15 PM 53.4 °F - 47.8 °F 81% 30.08 in 10.0 mi ESE 8.1 mph - N/A   Mostly Cloudy
3:35 PM 53.6 °F - 47.1 °F 79% 30.08 in 10.0 mi ESE 6.9 mph - N/A   Overcast
3:55 PM 54.0 °F - 47.1 °F 78% 30.07 in 10.0 mi SE 6.9 mph - N/A   Mostly Cloudy
4:15 PM 53.6 °F - 47.1 °F 79% 30.07 in 10.0 mi SE 8.1 mph - N/A   Overcast
4:35 PM 48.0 °F - 42.4 °F 81% 30.09 in 10.0 mi North 9.2 mph - N/A   Overcast
4:55 PM 46.0 °F 43.1 °F 41.2 °F 83% 30.10 in 10.0 mi North 5.8 mph - N/A   Overcast
5:15 PM 46.2 °F - 41.5 °F 84% 30.09 in 10.0 mi Calm Calm - N/A   Overcast
5:35 PM 45.0 °F - 40.8 °F 85% 30.10 in 10.0 mi Calm Calm - N/A   Mostly Cloudy
5:55 PM 45.0 °F - 40.8 °F 85% 30.10 in 7.0 mi Calm Calm - N/A   Light Drizzle
6:15 PM 44.6 °F - 40.6 °F 86% 30.11 in 10.0 mi Calm Calm - N/A Rain Light Rain
6:35 PM 44.2 °F - 40.5 °F 87% 30.11 in 7.0 mi Calm Calm - N/A   Light Drizzle
6:55 PM 43.9 °F - 40.5 °F 88% 30.11 in 7.0 mi Calm Calm - N/A   Overcast
7:15 PM 44.1 °F - 40.6 °F 88% 30.10 in 7.0 mi Calm Calm - N/A   Overcast
7:35 PM 43.5 °F - 40.3 °F 88% 30.10 in 7.0 mi Calm Calm - N/A   Overcast
7:55 PM 42.4 °F - 39.2 °F 88% 30.10 in 7.0 mi Calm Calm - N/A   Mostly Cloudy
8:15 PM 41.5 °F - 38.7 °F 89% 30.10 in 5.0 mi Calm Calm - N/A   Mostly Cloudy
8:35 PM 40.8 °F - 37.8 °F 89% 30.10 in 4.0 mi Calm Calm - N/A   Mostly Cloudy
8:55 PM 40.1 °F - 37.4 °F 90% 30.10 in 4.0 mi Calm Calm - N/A   Overcast
9:15 PM 39.9 °F - 37.2 °F 90% 30.11 in 4.0 mi Calm Calm - N/A   Overcast
9:35 PM 40.6 °F - 37.9 °F 90% 30.11 in 4.0 mi Calm Calm - N/A   Overcast
9:55 PM 41.0 °F - 38.3 °F 90% 30.12 in 4.0 mi Calm Calm - N/A   Overcast
10:15 PM 41.7 °F - 39.0 °F 90% 30.11 in 4.0 mi Calm Calm - N/A   Overcast
10:55 PM 42.1 °F - 39.2 °F 90% 30.12 in 4.0 mi Calm Calm - N/A   Overcast
11:15 PM 41.4 °F - 38.8 °F 91% 30.11 in 3.0 mi Calm Calm - N/A   Overcast
11:35 PM 41.2 °F - 38.7 °F 91% 30.11 in 3.0 mi Calm Calm - N/A   Overcast
11:55 PM 41.0 °F - 38.5 °F 91% 30.10 in 3.0 mi Calm Calm - N/A   Overcast